Location: Oroua River
(40.4333°S, 175.4333°E)
Time: 15:23:09
(UTC+00:00)

ATLAS 5 CENTAUR R/B - Pass Details

Date: 03 February 2023
Orbit: 460 x 1178 km, 63.3° (Epoch: 19 March)

Event Time Altitude Azimuth Distance (km) Brightness Sun altitude
Exits shadow 14:10:46 38° 39° (NE) 1,721 3.5 -28.6°
Maximum altitude 14:12:13 42° 65° (ENE) 1,624 3.6 -28.5°
Drops below altitude 10° 14:18:59 10° 132° (SE) 2,989 5.9 -27.9°
Sets 14:21:42 0° 139° (SE) 3,876 6.8 -27.6°
